STARLINK-32178 (60413 NORAD) Tracking and Keplerian Element Data

This shows tracking and keplerian element data for the satellite.

Feedback or suggestion? Click here.




ElementValue
Catalog60413
NameSTARLINK-32178
Epoch Orbit1099
Epoch Day286.79901335
Epoch Year2024
RAAN104.9866
Inclination53.1615
Eccentricity9.4E-05
Argument of Perigee80.3244
Mean Anonmoly279.7863
Mean Motion15.30209958
Decay Rate-1E-05
L11 60413U 24141R 24286.79901335 -.00001000 00000+0 -21636-4 0 9999
L22 60413 53.1615 104.9866 0000940 80.3244 279.7863 15.30209958 10998



Live tracking and technical data element details for STARLINK-32178 (NORAD 60413). STARLINK-32178 can be tracked NOW for your location showing map with azimuth and elevation plus other details from your city location.







IsCatalogInMostPopularTable: catalog: 60413, numindb: 7
Update: records affected: 1



GetName: 60413 STARLINK-32178

Hit Count: updated at: Wed, 04 Dec 2024 17:35:50 GMT